AIC2699 VOHS-VABB

Flight info

Callsign AIC2699
Flight time 1h 0m
Altitude 34000
Route TAMIV5 APUSU W18 OPAKA EMRAK2A
Aircraft A320/M-SDE3FGHIRWY/LB1

Departure

Time 2026-04-25 09:40
Airport Rajiv Gandhi International Airport (VOHS)

Arrival

Time 2026-04-25 10:41
Airport Chhatrapati Shivaji Maharaj International Airport (VABB)
Time Latitude Longitude Altitude Speed Heading
2026-04-25 08:35 17.23423 78.43246 1980 ft 0 kts
2026-04-25 09:18 17.23415 78.43246 1983 ft 4 kts 358°
2026-04-25 09:19 17.23389 78.43249 1982 ft 4 kts 339°
2026-04-25 09:19 17.23368 78.43263 1981 ft 4 kts 298°
2026-04-25 09:19 17.23363 78.43278 1982 ft 1 kts 269°
2026-04-25 09:19 17.23363 78.43254 1980 ft 2 kts 269°
2026-04-25 09:20 17.23363 78.43253 1980 ft 0 kts 269°
2026-04-25 09:23 17.23363 78.43226 1980 ft 8 kts 269°
2026-04-25 09:23 17.23354 78.43175 1983 ft 6 kts 238°
2026-04-25 09:23 17.23311 78.43159 1983 ft 11 kts 180°
2026-04-25 09:23 17.23239 78.43161 1981 ft 0 kts 179°
2026-04-25 09:25 17.23202 78.43162 1980 ft 10 kts 180°
2026-04-25 09:25 17.23138 78.43162 1982 ft 10 kts 177°
2026-04-25 09:25 17.23082 78.43230 1981 ft 16 kts 93°
2026-04-25 09:25 17.23088 78.43355 1979 ft 18 kts 88°
2026-04-25 09:26 17.23088 78.43501 1979 ft 22 kts 85°
2026-04-25 09:26 17.23092 78.43662 1980 ft 23 kts 90°
2026-04-25 09:26 17.23095 78.43832 1980 ft 24 kts 89°
2026-04-25 09:26 17.23098 78.44031 1983 ft 30 kts 88°
2026-04-25 09:27 17.23100 78.44252 1983 ft 31 kts 90°
2026-04-25 09:27 17.23101 78.44478 1981 ft 31 kts 89°
2026-04-25 09:27 17.23106 78.44707 1980 ft 32 kts 88°
2026-04-25 09:27 17.23111 78.44937 1979 ft 32 kts 89°
2026-04-25 09:28 17.23112 78.45112 1982 ft 11 kts 87°
2026-04-25 09:28 17.23113 78.45130 1983 ft 0 kts 86°
2026-04-25 09:30 17.23114 78.45150 1982 ft 9 kts 86°
2026-04-25 09:30 17.23116 78.45216 1981 ft 8 kts 90°
2026-04-25 09:30 17.23116 78.45226 1981 ft 0 kts 91°
2026-04-25 09:31 17.23116 78.45228 1981 ft 2 kts 91°
2026-04-25 09:32 17.23111 78.45284 1982 ft 9 kts 107°
2026-04-25 09:32 17.23084 78.45315 1980 ft 0 kts 149°
2026-04-25 09:33 17.23082 78.45315 1979 ft 2 kts 152°
2026-04-25 09:33 17.23074 78.45317 1979 ft 0 kts 167°
2026-04-25 09:34 17.23062 78.45319 1981 ft 7 kts 172°
2026-04-25 09:34 17.23033 78.45320 1980 ft 0 kts 182°
2026-04-25 09:36 17.23028 78.45320 1980 ft 4 kts 182°
2026-04-25 09:37 17.22967 78.45297 1980 ft 13 kts 218°
2026-04-25 09:37 17.22913 78.45241 1981 ft 9 kts 242°
2026-04-25 09:37 17.22909 78.45198 1982 ft 0 kts 270°
2026-04-25 09:39 17.22909 78.45197 1981 ft 3 kts 270°
2026-04-25 09:40 17.22895 78.44095 1981 ft 139 kts 269°
2026-04-25 09:40 17.22881 78.42914 1983 ft 184 kts 270°
2026-04-25 09:40 17.22878 78.41514 2407 ft 197 kts 270°
2026-04-25 09:40 17.22872 78.40068 2948 ft 201 kts 270°
2026-04-25 09:41 17.22860 78.38570 3332 ft 213 kts 269°
2026-04-25 09:41 17.22825 78.36952 3616 ft 233 kts 269°
2026-04-25 09:41 17.22795 78.35177 3878 ft 255 kts 269°
2026-04-25 09:41 17.22767 78.33247 4225 ft 276 kts 270°
2026-04-25 09:42 17.23078 78.31258 4800 ft 284 kts 287°
2026-04-25 09:42 17.23664 78.29267 5522 ft 288 kts 287°
2026-04-25 09:42 17.24255 78.27264 6346 ft 288 kts 288°
2026-04-25 09:42 17.24851 78.25268 7164 ft 287 kts 288°
2026-04-25 09:43 17.25444 78.23275 7993 ft 287 kts 288°
2026-04-25 09:43 17.26036 78.21274 8748 ft 292 kts 288°
2026-04-25 09:43 17.26639 78.19224 9428 ft 297 kts 288°
2026-04-25 09:43 17.27247 78.17141 10120 ft 304 kts 288°
2026-04-25 09:44 17.27878 78.14975 10353 ft 327 kts 288°
2026-04-25 09:44 17.28557 78.12646 10735 ft 342 kts 288°
2026-04-25 09:44 17.29255 78.10247 11379 ft 347 kts 288°
2026-04-25 09:44 17.29961 78.07816 12062 ft 351 kts 288°
2026-04-25 09:45 17.30672 78.05355 12730 ft 356 kts 288°
2026-04-25 09:45 17.31392 78.02864 13425 ft 359 kts 288°
2026-04-25 09:45 17.32123 78.00347 13869 ft 363 kts 288°
2026-04-25 09:45 17.32861 77.97811 14469 ft 365 kts 288°
2026-04-25 09:46 17.33601 77.95265 15156 ft 366 kts 287°
2026-04-25 09:46 17.34338 77.92716 15816 ft 367 kts 286°
2026-04-25 09:46 17.35065 77.90192 16492 ft 367 kts 286°
2026-04-25 09:46 17.35802 77.87633 17154 ft 368 kts 286°
2026-04-25 09:47 17.36543 77.85067 17823 ft 369 kts 286°
2026-04-25 09:47 17.37286 77.82491 18401 ft 371 kts 286°
2026-04-25 09:47 17.38036 77.79895 18890 ft 374 kts 285°
2026-04-25 09:47 17.38792 77.77281 19399 ft 377 kts 285°
2026-04-25 09:48 17.39553 77.74646 19894 ft 379 kts 285°
2026-04-25 09:48 17.40318 77.71998 20397 ft 381 kts 284°
2026-04-25 09:48 17.41086 77.69336 20889 ft 384 kts 284°
2026-04-25 09:48 17.41848 77.66687 21373 ft 386 kts 284°
2026-04-25 09:49 17.42622 77.63987 21840 ft 389 kts 283°
2026-04-25 09:49 17.43403 77.61269 22308 ft 391 kts 283°
2026-04-25 09:49 17.43996 77.58498 22773 ft 390 kts 275°
2026-04-25 09:49 17.44354 77.55673 23228 ft 392 kts 274°
2026-04-25 09:50 17.44717 77.52833 23644 ft 395 kts 274°
2026-04-25 09:50 17.45084 77.49978 24030 ft 397 kts 274°
2026-04-25 09:50 17.45456 77.47109 24435 ft 398 kts 274°
2026-04-25 09:50 17.45827 77.44233 24841 ft 399 kts 274°
2026-04-25 09:51 17.46195 77.41350 25240 ft 400 kts 274°
2026-04-25 09:51 17.46562 77.38456 25638 ft 401 kts 274°
2026-04-25 09:51 17.46923 77.35599 26024 ft 402 kts 274°
2026-04-25 09:51 17.47291 77.32693 26414 ft 403 kts 274°
2026-04-25 09:52 17.47661 77.29777 26779 ft 404 kts 273°
2026-04-25 09:52 17.48032 77.26852 27144 ft 405 kts 273°
2026-04-25 09:52 17.48406 77.23919 27510 ft 407 kts 273°
2026-04-25 09:52 17.48780 77.20976 27865 ft 408 kts 273°
2026-04-25 09:53 17.49153 77.18023 28220 ft 410 kts 273°
2026-04-25 09:53 17.49527 77.15057 28580 ft 411 kts 273°
2026-04-25 09:53 17.49901 77.12082 28941 ft 413 kts 273°
2026-04-25 09:53 17.50276 77.09100 29295 ft 414 kts 273°
2026-04-25 09:54 17.50647 77.06145 29637 ft 415 kts 272°
2026-04-25 09:54 17.51024 77.03139 29969 ft 417 kts 272°
2026-04-25 09:54 17.51405 77.00127 30246 ft 418 kts 272°
2026-04-25 09:54 17.51787 76.97102 30514 ft 419 kts 272°
2026-04-25 09:55 17.52167 76.94072 30770 ft 421 kts 272°
2026-04-25 09:55 17.52545 76.91020 31024 ft 422 kts 272°
2026-04-25 09:55 17.52921 76.87963 31272 ft 424 kts 272°
2026-04-25 09:55 17.53299 76.84898 31565 ft 425 kts 272°
2026-04-25 09:56 17.53680 76.81828 31871 ft 425 kts 272°
2026-04-25 09:56 17.54056 76.78805 32205 ft 424 kts 272°
2026-04-25 09:56 17.54438 76.75749 32569 ft 423 kts 272°
2026-04-25 09:56 17.54968 76.72710 32918 ft 428 kts 280°
2026-04-25 09:57 17.56089 76.69793 33258 ft 437 kts 292°
2026-04-25 09:57 17.57821 76.67139 33608 ft 448 kts 304°
2026-04-25 09:57 17.60124 76.64878 33865 ft 461 kts 317°
2026-04-25 09:57 17.62889 76.63150 33923 ft 462 kts 326°
2026-04-25 09:58 17.68543 76.60113 33929 ft 453 kts 325°
2026-04-25 09:58 17.74092 76.57111 33929 ft 452 kts 324°
2026-04-25 09:59 17.79670 76.54059 33927 ft 451 kts 324°
2026-04-25 09:59 17.85231 76.51010 33931 ft 451 kts 324°
2026-04-25 10:00 17.90806 76.47969 33923 ft 452 kts 324°
2026-04-25 10:00 17.96343 76.44953 33929 ft 452 kts 324°
2026-04-25 10:01 18.01927 76.41911 33917 ft 453 kts 324°
2026-04-25 10:01 18.07565 76.38925 33914 ft 454 kts 325°
2026-04-25 10:02 18.12557 76.35251 33913 ft 428 kts 301°
2026-04-25 10:02 18.14208 76.32708 33911 ft 415 kts 291°
2026-04-25 10:02 18.15619 76.30062 33909 ft 415 kts 291°
2026-04-25 10:03 18.18413 76.24786 33907 ft 416 kts 291°
2026-04-25 10:03 18.21225 76.19462 33905 ft 416 kts 291°
2026-04-25 10:04 18.24040 76.14141 33913 ft 416 kts 290°
2026-04-25 10:04 18.26858 76.08816 33915 ft 416 kts 290°
2026-04-25 10:05 18.29672 76.03494 33913 ft 416 kts 290°
2026-04-25 10:05 18.32487 75.98170 33916 ft 416 kts 290°
2026-04-25 10:06 18.35280 75.92884 33917 ft 416 kts 290°
2026-04-25 10:06 18.38086 75.87558 33915 ft 416 kts 290°
2026-04-25 10:07 18.40896 75.82236 33913 ft 416 kts 290°
2026-04-25 10:07 18.43698 75.76914 33908 ft 415 kts 290°
2026-04-25 10:08 18.46490 75.71603 33919 ft 414 kts 290°
2026-04-25 10:08 18.49278 75.66298 33921 ft 413 kts 290°
2026-04-25 10:09 18.52034 75.61046 33907 ft 413 kts 290°
2026-04-25 10:09 18.54816 75.55752 33903 ft 412 kts 290°
2026-04-25 10:10 18.57587 75.50465 33915 ft 412 kts 290°
2026-04-25 10:10 18.60348 75.45191 33902 ft 411 kts 290°
2026-04-25 10:11 18.63106 75.39920 33910 ft 410 kts 290°
2026-04-25 10:11 18.65839 75.34698 33903 ft 409 kts 290°
2026-04-25 10:12 18.68590 75.29450 33897 ft 409 kts 290°
2026-04-25 10:13 18.72695 75.21579 33887 ft 408 kts 290°
2026-04-25 10:13 18.75427 75.16335 33877 ft 408 kts 290°
2026-04-25 10:14 18.78157 75.11094 33875 ft 408 kts 290°
2026-04-25 10:14 18.80882 75.05859 33881 ft 408 kts 290°
2026-04-25 10:15 18.83593 75.00647 33879 ft 407 kts 290°
2026-04-25 10:15 18.86313 74.95403 33895 ft 407 kts 290°
2026-04-25 10:16 18.89035 74.90167 33896 ft 406 kts 290°
2026-04-25 10:16 18.91744 74.84955 33637 ft 401 kts 290°
2026-04-25 10:16 18.93080 74.82385 33382 ft 397 kts 290°
2026-04-25 10:17 18.94402 74.79837 33121 ft 394 kts 289°
2026-04-25 10:17 18.95417 74.77242 32871 ft 372 kts 276°
2026-04-25 10:17 18.95983 74.74572 32601 ft 374 kts 275°
2026-04-25 10:17 18.96532 74.71886 32324 ft 374 kts 275°
2026-04-25 10:18 18.97072 74.69237 32056 ft 373 kts 275°
2026-04-25 10:18 18.97616 74.66561 31789 ft 372 kts 275°
2026-04-25 10:18 18.98162 74.63890 31527 ft 371 kts 275°
2026-04-25 10:18 18.98707 74.61231 31263 ft 370 kts 275°
2026-04-25 10:19 18.99249 74.58581 31004 ft 369 kts 275°
2026-04-25 10:19 18.99789 74.55935 30746 ft 367 kts 275°
2026-04-25 10:19 19.00324 74.53299 30492 ft 366 kts 276°
2026-04-25 10:19 19.00854 74.50672 30251 ft 365 kts 276°
2026-04-25 10:20 19.01384 74.48050 29682 ft 367 kts 276°
2026-04-25 10:20 19.01912 74.45425 28346 ft 374 kts 277°
2026-04-25 10:20 19.02456 74.42723 27208 ft 377 kts 278°
2026-04-25 10:20 19.02999 74.40061 26821 ft 360 kts 278°
2026-04-25 10:21 19.03521 74.37531 26459 ft 345 kts 278°
2026-04-25 10:21 19.04022 74.35102 26069 ft 333 kts 278°
2026-04-25 10:21 19.04504 74.32727 25677 ft 330 kts 278°
2026-04-25 10:21 19.04981 74.30348 25287 ft 331 kts 279°
2026-04-25 10:22 19.05457 74.27966 24756 ft 333 kts 279°
2026-04-25 10:22 19.05775 74.26370 24219 ft 336 kts 279°
2026-04-25 10:22 19.06426 74.23115 23103 ft 341 kts 280°
2026-04-25 10:22 19.06913 74.20688 22168 ft 344 kts 281°
2026-04-25 10:23 19.07413 74.18210 21369 ft 344 kts 281°
2026-04-25 10:23 19.07910 74.15743 20921 ft 343 kts 281°
2026-04-25 10:23 19.08404 74.13277 20494 ft 342 kts 281°
2026-04-25 10:23 19.08897 74.10821 20073 ft 342 kts 281°
2026-04-25 10:24 19.09391 74.08365 19651 ft 341 kts 281°
2026-04-25 10:24 19.09884 74.05915 19228 ft 341 kts 281°
2026-04-25 10:24 19.10376 74.03465 18810 ft 341 kts 281°
2026-04-25 10:24 19.10858 74.01043 18399 ft 341 kts 282°
2026-04-25 10:25 19.11347 73.98586 17952 ft 342 kts 282°
2026-04-25 10:25 19.11836 73.96127 17521 ft 342 kts 282°
2026-04-25 10:25 19.12328 73.93670 17106 ft 341 kts 282°
2026-04-25 10:25 19.12820 73.91223 16685 ft 340 kts 283°
2026-04-25 10:26 19.13310 73.88777 16281 ft 340 kts 283°
2026-04-25 10:26 19.13799 73.86334 15880 ft 340 kts 282°
2026-04-25 10:26 19.14286 73.83890 15475 ft 340 kts 283°
2026-04-25 10:26 19.14773 73.81446 15073 ft 340 kts 283°
2026-04-25 10:27 19.15253 73.79036 14665 ft 340 kts 283°
2026-04-25 10:27 19.15739 73.76588 14264 ft 340 kts 283°
2026-04-25 10:27 19.16227 73.74135 13848 ft 340 kts 283°
2026-04-25 10:27 19.16714 73.71690 13426 ft 340 kts 283°
2026-04-25 10:28 19.17197 73.69247 13015 ft 338 kts 283°
2026-04-25 10:28 19.17671 73.66840 12843 ft 329 kts 283°
2026-04-25 10:28 19.18126 73.64517 12709 ft 319 kts 283°
2026-04-25 10:28 19.18580 73.62212 12269 ft 321 kts 282°
2026-04-25 10:29 19.19038 73.59905 11940 ft 319 kts 283°
2026-04-25 10:29 19.19419 73.57643 11588 ft 318 kts 272°
2026-04-25 10:29 19.19169 73.55329 11244 ft 316 kts 257°
2026-04-25 10:29 19.18648 73.53078 10898 ft 315 kts 255°
2026-04-25 10:30 19.18109 73.50842 10528 ft 314 kts 255°
2026-04-25 10:30 19.17752 73.49362 10290 ft 313 kts 255°
2026-04-25 10:30 19.17034 73.46383 9807 ft 313 kts 255°
2026-04-25 10:30 19.16498 73.44160 9455 ft 311 kts 255°
2026-04-25 10:31 19.15964 73.41951 9075 ft 309 kts 255°
2026-04-25 10:31 19.15428 73.39761 8762 ft 306 kts 255°
2026-04-25 10:31 19.14900 73.37620 8406 ft 304 kts 255°
2026-04-25 10:31 19.14365 73.35455 8020 ft 303 kts 255°
2026-04-25 10:32 19.13833 73.33322 7847 ft 296 kts 255°
2026-04-25 10:32 19.13318 73.31261 7716 ft 284 kts 255°
2026-04-25 10:32 19.12820 73.29276 7596 ft 275 kts 255°
2026-04-25 10:32 19.12354 73.27358 7479 ft 265 kts 255°
2026-04-25 10:33 19.11907 73.25502 7359 ft 256 kts 255°
2026-04-25 10:33 19.11472 73.23707 7243 ft 249 kts 255°
2026-04-25 10:33 19.11055 73.21969 7103 ft 244 kts 255°
2026-04-25 10:33 19.10644 73.20252 6992 ft 238 kts 255°
2026-04-25 10:34 19.10246 73.18587 6869 ft 226 kts 255°
2026-04-25 10:34 19.09866 73.17000 6518 ft 223 kts 255°
2026-04-25 10:34 19.09476 73.15380 5886 ft 232 kts 257°
2026-04-25 10:34 19.09254 73.13704 5509 ft 222 kts 266°
2026-04-25 10:35 19.09201 73.12131 5268 ft 210 kts 270°
2026-04-25 10:35 19.09182 73.10599 4932 ft 207 kts 270°
2026-04-25 10:35 19.09165 73.09097 4569 ft 203 kts 270°
2026-04-25 10:35 19.09146 73.07613 4199 ft 201 kts 270°
2026-04-25 10:36 19.09128 73.06099 3598 ft 210 kts 270°
2026-04-25 10:36 19.09108 73.04590 3100 ft 209 kts 271°
2026-04-25 10:36 19.09088 73.03112 2749 ft 193 kts 274°
2026-04-25 10:36 19.09069 73.01741 2485 ft 178 kts 273°
2026-04-25 10:37 19.09053 73.00479 2270 ft 167 kts 273°
2026-04-25 10:37 19.09037 72.99300 2089 ft 152 kts 272°
2026-04-25 10:37 19.09023 72.98210 1891 ft 145 kts 274°
2026-04-25 10:37 19.09010 72.97157 1707 ft 142 kts 274°
2026-04-25 10:38 19.08997 72.96128 1541 ft 139 kts 273°
2026-04-25 10:38 19.08984 72.95125 1366 ft 137 kts 275°
2026-04-25 10:38 19.08971 72.94109 1192 ft 142 kts 273°
2026-04-25 10:38 19.08957 72.93065 1011 ft 142 kts 274°
2026-04-25 10:39 19.08943 72.92024 841 ft 140 kts 274°
2026-04-25 10:39 19.08929 72.91011 684 ft 137 kts 270°
2026-04-25 10:39 19.08916 72.90021 509 ft 133 kts 270°
2026-04-25 10:39 19.08909 72.89040 357 ft 135 kts 272°
2026-04-25 10:40 19.08887 72.88051 181 ft 134 kts 271°
2026-04-25 10:40 19.08877 72.87082 59 ft 124 kts 272°
2026-04-25 10:40 19.08871 72.86522 48 ft 102 kts 270°
2026-04-25 10:40 19.08862 72.85948 48 ft 56 kts 269°
2026-04-25 10:41 19.08914 72.85569 49 ft 34 kts 294°
2026-04-25 10:41 19.08992 72.85487 49 ft 0 kts 359°
2026-04-25 10:42 19.09008 72.85494 49 ft 10 kts 33°
2026-04-25 10:42 19.09025 72.85592 49 ft 15 kts 88°
2026-04-25 10:42 19.09027 72.85697 49 ft 14 kts 89°
2026-04-25 10:43 19.09029 72.85794 49 ft 13 kts 89°
2026-04-25 10:43 19.09032 72.85913 49 ft 12 kts 89°
2026-04-25 10:43 19.09033 72.85969 48 ft 11 kts 89°
2026-04-25 10:43 19.09033 72.86090 48 ft 15 kts 90°
2026-04-25 10:44 19.09034 72.86196 48 ft 14 kts 89°
2026-04-25 10:44 19.09037 72.86261 48 ft 13 kts 89°
2026-04-25 10:44 19.09037 72.86351 49 ft 12 kts 90°
2026-04-25 10:44 19.09038 72.86435 49 ft 11 kts 89°
2026-04-25 10:45 19.09039 72.86511 49 ft 10 kts 88°
2026-04-25 10:45 19.09041 72.86578 49 ft 8 kts 88°
2026-04-25 10:45 19.09041 72.86636 50 ft 8 kts 90°
2026-04-25 10:45 19.09041 72.86690 50 ft 7 kts 90°
2026-04-25 10:46 19.09043 72.86765 50 ft 10 kts 87°
2026-04-25 10:46 19.09044 72.86814 50 ft 11 kts 89°
2026-04-25 10:46 19.09043 72.86916 50 ft 15 kts 90°
2026-04-25 10:46 19.09048 72.87024 50 ft 14 kts 86°
2026-04-25 10:47 19.09048 72.87124 50 ft 13 kts 92°
2026-04-25 10:47 19.09048 72.87216 50 ft 12 kts 89°
2026-04-25 10:47 19.09050 72.87298 50 ft 11 kts 88°
2026-04-25 10:47 19.09052 72.87378 49 ft 10 kts 90°
2026-04-25 10:48 19.09074 72.87442 49 ft 9 kts 37°
2026-04-25 10:48 19.09126 72.87469 49 ft 8 kts 42°
2026-04-25 10:48 19.09141 72.87536 49 ft 10 kts 89°
2026-04-25 10:48 19.09143 72.87605 49 ft 9 kts 89°
2026-04-25 10:49 19.09156 72.87664 49 ft 8 kts 54°
2026-04-25 10:49 19.09189 72.87674 49 ft 0 kts 359°
2026-04-25 10:50 19.09197 72.87674 49 ft 4 kts 359°
2026-04-25 10:50 19.09250 72.87678 47 ft 10 kts 13°
2026-04-25 10:50 19.09307 72.87710 49 ft 9 kts 30°
2026-04-25 10:51 19.09358 72.87738 49 ft 8 kts 25°
2026-04-25 10:51 19.09402 72.87757 49 ft 6 kts 24°
2026-04-25 10:51 19.09436 72.87780 47 ft 5 kts 34°
2026-04-25 10:51 19.09463 72.87800 49 ft 4 kts 34°
2026-04-25 10:52 19.09491 72.87817 49 ft 5 kts 28°
2026-04-25 10:52 19.09519 72.87832 49 ft 4 kts 27°
2026-04-25 10:52 19.09544 72.87844 49 ft 4 kts 21°
2026-04-25 10:52 19.09573 72.87854 49 ft 8 kts 12°
2026-04-25 10:53 19.09610 72.87835 49 ft 1 kts 310°
2026-04-25 10:53 19.09611 72.87821 49 ft 2 kts 267°
2026-04-25 10:53 19.09608 72.87811 49 ft 1 kts 251°
2026-04-25 10:53 19.09598 72.87792 47 ft 4 kts 241°
2026-04-25 10:54 19.09597 72.87789 48 ft 0 kts 241°
2026-04-25 10:54 19.09595 72.87784 47 ft 3 kts 242°
2026-04-25 10:54 19.09584 72.87765 49 ft 2 kts 240°
2026-04-25 10:55 19.09578 72.87753 49 ft 1 kts 240°
2026-04-25 10:55 19.09576 72.87748 49 ft 0 kts 240°
2026-04-25 10:55 19.09573 72.87743 49 ft 1 kts 240°
2026-04-25 10:55 19.09571 72.87740 49 ft 1 kts 240°